This is the latest recevied weather packets stored in our database for station/object N7NIP. If no packets are shown the sender has not sent any weather packets the latest 10 day(s).
| Time | Temp. | Humidity | Pressure | Rain* | Wind** | Luminosity | Snow |
|---|---|---|---|---|---|---|---|
| 1777319388 | 12.22° C | 70% | 1030.9 hPa | 0 mm | - | 275 W/m² | - |
| 1777319086 | 11.67° C | 71% | 1031 hPa | 0 mm | - | 279 W/m² | - |
| 1777318783 | 11.67° C | 72% | 1031.1 hPa | 0 mm | - | 306 W/m² | - |
| 1777318478 | 11.67° C | 70% | 1031.1 hPa | 0 mm | - | 261 W/m² | - |
| 1777318175 | 12.22° C | 69% | 1031 hPa | 0 mm | - | 264 W/m² | - |
| 1777317873 | 12.22° C | 70% | 1031.1 hPa | 0 mm | - | 375 W/m² | - |
| 1777317569 | 12.22° C | 70% | 1031.1 hPa | 0 mm | - | 441 W/m² | - |
| 1777317267 | 11.67° C | 72% | 1031.1 hPa | 0 mm | - | 461 W/m² | - |
| 1777316962 | 11.67° C | 72% | 1031.1 hPa | 0 mm | - | 248 W/m² | - |
| 1777316660 | 11.67° C | 71% | 1031.2 hPa | 0 mm | - | 254 W/m² | - |
| 1777316355 | 11.11° C | 72% | 1031.2 hPa | 0 mm | - | 243 W/m² | - |
| 1777316054 | 11.11° C | 72% | 1031.2 hPa | 0 mm | - | 184 W/m² | - |
| 1777315752 | 11.67° C | 72% | 1031 hPa | 0 mm | - | 216 W/m² | - |
| 1777315449 | 11.67° C | 72% | 1031.1 hPa | 0 mm | - | 208 W/m² | - |
| 1777315147 | 11.11° C | 73% | 1030.9 hPa | 0 mm | - | 231 W/m² | - |
| 1777314842 | 11.11° C | 72% | 1031 hPa | 0 mm | - | 228 W/m² | - |
| 1777314539 | 11.11° C | 73% | 1031 hPa | 0 mm | - | 217 W/m² | - |
| 1777314235 | 11.11° C | 73% | 1031 hPa | 0 mm | - | 254 W/m² | - |
| 1777313934 | 11.11° C | 73% | 1030.8 hPa | 0 mm | - | 245 W/m² | - |
| 1777313631 | 11.11° C | 74% | 1030.9 hPa | 0 mm | - | 228 W/m² | - |
| 1777313329 | 10.56° C | 75% | 1031 hPa | 0 mm | - | 253 W/m² | - |
| 1777313025 | 10.56° C | 76% | 1030.9 hPa | 0 mm | - | 183 W/m² | - |
| 1777312721 | 11.11° C | 74% | 1030.8 hPa | 0 mm | - | 204 W/m² | - |
| 1777312418 | 11.11° C | 73% | 1030.7 hPa | 0 mm | - | 160 W/m² | - |
| 1777312115 | 11.11° C | 73% | 1030.8 hPa | 0 mm | - | 185 W/m² | - |
* Rain latest hour (hover to see other rain measurements)
** Current wind speed in m/s (hover to see current wind gust speed)